This is the latest recevied weather packets stored in our database for station/object I2TZK-00. If no packets are shown the sender has not sent any weather packets the latest 10 day(s).
| Time | Temp. | Humidity | Pressure | Rain* | Wind** | Luminosity | Snow |
|---|---|---|---|---|---|---|---|
| 1787848242 | 27.78° C | 49% | 1010.5 hPa | - | - | - | - |
| 1787848062 | 27.78° C | 49% | 1010.5 hPa | - | - | - | - |
| 1787847883 | 27.78° C | 51% | 1010.4 hPa | - | - | - | - |
| 1787847703 | 27.78° C | 55% | 1010.3 hPa | - | - | - | - |
| 1787847523 | 28.33° C | 63% | 1010.2 hPa | - | - | - | - |
| 1787847344 | 28.33° C | 62% | 1010.4 hPa | - | - | - | - |
| 1787847164 | 27.78° C | 61% | 1010.5 hPa | - | - | - | - |
| 1787846984 | 27.78° C | 60% | 1010.4 hPa | - | - | - | - |
| 1787846831 | 27.78° C | 59% | 1010.8 hPa | - | - | - | - |
| 1787846651 | 27.78° C | 58% | 1010.8 hPa | - | - | - | - |
| 1787846472 | 27.22° C | 55% | 1010.9 hPa | - | - | - | - |
| 1787846292 | 27.22° C | 50% | 1011 hPa | - | - | - | - |
| 1787846112 | 27.22° C | 49% | 1011.1 hPa | - | - | - | - |
| 1787845933 | 27.78° C | 48% | 1010.7 hPa | - | - | - | - |
| 1787845753 | 27.78° C | 47% | 1010.6 hPa | - | - | - | - |
| 1787845573 | 27.78° C | 48% | 1010.3 hPa | - | - | - | - |
| 1787845393 | 28.33° C | 50% | 1010.3 hPa | - | - | - | - |
| 1787844715 | 27.78° C | 59% | 1010.4 hPa | - | - | - | - |
| 1787844535 | 27.78° C | 57% | 1010.5 hPa | - | - | - | - |
| 1787844356 | 27.78° C | 52% | 1010.4 hPa | - | - | - | - |
| 1787844176 | 27.78° C | 50% | 1010.5 hPa | - | - | - | - |
| 1787843996 | 27.78° C | 49% | 1010.6 hPa | - | - | - | - |
| 1787843817 | 27.78° C | 50% | 1010.4 hPa | - | - | - | - |
| 1787842244 | 28.33° C | 48% | 1010 hPa | - | - | - | - |
| 1787842064 | 28.33° C | 48% | 1010 hPa | - | - | - | - |
* Rain since midnight (hover to see other rain measurements)
** Current wind speed in m/s (hover to see current wind gust speed)